Satellite-Ground Cal/Val Region Overpasses Predictions

Prediction of Satellite NPP Overpassing Cal/Val Region: PacNW

Region Location: (Latitude: 10.00, Longitude: 139.50) to (Latitude: 22.70, Longitude: 165.60).

Table of predicted overpasses for the next 14.0 days since TLE Epoch: 5/29/2020
Interval Starting Time Starting Location Ending Time Ending Location
1 05/30/2020 03:17:00 ( 10.02, 150.40) 05/30/2020 03:20:35 ( 22.64, 147.40)
2 05/30/2020 15:48:52 ( 22.69, 147.65) 05/30/2020 15:52:28 ( 10.01, 144.63)
3 05/31/2020 02:57:57 ( 10.00, 155.17) 05/31/2020 03:01:33 ( 22.68, 152.15)
4 05/31/2020 15:29:51 ( 22.66, 152.40) 05/31/2020 15:33:26 ( 10.04, 149.39)
5 06/01/2020 02:38:56 ( 10.04, 159.92) 06/01/2020 02:42:31 ( 22.66, 156.91)
6 06/01/2020 15:10:49 ( 22.68, 157.16) 06/01/2020 15:14:24 ( 10.06, 154.16)
7 06/02/2020 02:19:53 ( 10.02, 164.68) 06/02/2020 02:23:29 ( 22.70, 161.66)
8 06/02/2020 14:51:46 ( 22.70, 161.93) 06/02/2020 14:55:22 ( 10.02, 158.91)
9 06/03/2020 03:42:21 ( 10.00, 144.07) 06/03/2020 03:45:57 ( 22.68, 141.05)
10 06/03/2020 14:34:00 ( 18.26, 165.60) 06/03/2020 14:36:20 ( 10.04, 163.67)
11 06/03/2020 16:14:15 ( 22.65, 141.30) 06/03/2020 16:16:21 ( 15.26, 139.51)
12 06/04/2020 03:23:19 ( 10.04, 148.82) 06/04/2020 03:26:54 ( 22.66, 145.82)
13 06/04/2020 15:55:12 ( 22.67, 146.06) 06/04/2020 15:58:47 ( 10.05, 143.06)
14 06/05/2020 03:04:17 ( 10.02, 153.59) 06/05/2020 03:07:52 ( 22.64, 150.58)
15 06/05/2020 15:36:10 ( 22.69, 150.83) 06/05/2020 15:39:46 ( 10.02, 147.81)
16 06/06/2020 02:45:14 ( 10.00, 158.35) 06/06/2020 02:48:50 ( 22.68, 155.33)
17 06/06/2020 15:17:08 ( 22.65, 155.58) 06/06/2020 15:20:43 ( 10.03, 152.57)
18 06/07/2020 02:26:13 ( 10.04, 163.10) 06/07/2020 02:29:48 ( 22.67, 160.10)
19 06/07/2020 14:58:06 ( 22.67, 160.34) 06/07/2020 15:01:41 ( 10.05, 157.34)
20 06/08/2020 02:09:55 ( 19.66, 165.60) 06/08/2020 02:10:46 ( 22.65, 164.86)
21 06/08/2020 03:48:40 ( 10.03, 142.49) 06/08/2020 03:52:13 ( 22.54, 139.51)
22 06/08/2020 14:39:03 ( 22.69, 165.11) 06/08/2020 14:42:39 ( 10.01, 162.09)
23 06/08/2020 16:20:33 ( 22.68, 139.73) 06/08/2020 16:20:48 ( 21.81, 139.51)
24 06/09/2020 03:29:38 ( 10.01, 147.25) 06/09/2020 03:33:14 ( 22.70, 144.23)
25 06/09/2020 16:01:32 ( 22.64, 144.48) 06/09/2020 16:05:07 ( 10.02, 141.48)
26 06/10/2020 03:10:37 ( 10.06, 152.00) 06/10/2020 03:14:12 ( 22.68, 149.00)
27 06/10/2020 15:42:29 ( 22.66, 149.24) 06/10/2020 15:46:04 ( 10.04, 146.24)
28 06/11/2020 02:51:34 ( 10.04, 156.77) 06/11/2020 02:55:09 ( 22.66, 153.76)
29 06/11/2020 15:23:27 ( 22.68, 154.01) 06/11/2020 15:27:03 ( 10.00, 150.99)
30 06/12/2020 02:32:32 ( 10.02, 161.53) 06/12/2020 02:36:07 ( 22.65, 158.52)


NCC Satellite Cal/Val Overpasses Prediction Service
